Regional Weather Roundup
Issued by NWS

Home | Current Version | Previous Version | Graphics & Text | Print | Product List | Glossary On
Versions: 1 2 3 4 5 6 7 8 9 10 11 12 13 14 15 16 17 18 19 20 21 22 23 24 25 26 27 28 29 30 31 32 33 34 35 36 37 38 39 40 41 42 43 44 45 46 47 48 49 50
000
ASUS43 KMPX 181801
RWRMN
WEATHER ROUNDUP FOR MINNESOTA
NATIONAL WEATHER SERVICE TWIN CITIES/CHANHASSEN MN
100 PM CDT SAT APR 18 2015


NOTE: "FAIR" INDICATES FEW OR NO CLOUDS BELOW 12,000 FEET WITH NO
SIGNIFICANT WEATHER AND/OR OBSTRUCTIONS TO VISIBILITY. N/A MEANS
CURRENT SKY AND/OR WEATHER CONDITIONS ARE NOT AVAILABLE.

MNZ060>063-068>070-181900-
   Twin Cities Metro

CITY           SKY/WX    TMP DP  RH WIND       PRES   REMARKS
TWIN CITIES    MOSUNNY   69  35  28 E14       30.03F
6HR MIN TEMP:  53; 6HR MAX TEMP:  69;

ST PAUL        MOSUNNY   68  32  26 SE9       30.04F
CRYSTAL        MOSUNNY   69  32  25 E12       30.02F
BLAINE         MOSUNNY   70  34  26 E14       30.04F
LAKEVILLE      PTSUNNY   68  36  30 E13G22    30.01F
EDEN PRAIRIE   MOSUNNY   68  34  28 E10       30.01F
6HR MIN TEMP:  52; 6HR MAX TEMP:  69;

SOUTH ST PAUL  MOSUNNY   68  32  26 E3        30.03F
LAKE ELMO      FAIR      66  34  30 E10       30.05F
$$
MNZ001>005-007-008-013>017-022>024-027-028-181900-
   Northwest Minnesota

CITY           SKY/WX    TMP DP  RH WIND       PRES   REMARKS
BEMIDJI        SUNNY     58  30  33 SE13      30.08F
HALLOCK        SUNNY     61  21  21 SE8       30.04F
ROSEAU         SUNNY     59  21  23 SE14G20   30.08F
WARROAD        SUNNY     52  30  43 E9        30.10F
THIEF RVR FALL MOSUNNY   61  28  29 SE12      30.05F
CROOKSTON      SUNNY     63  28  27 SE7       30.04F
FOSSTON        SUNNY     63  28  27 SE12      30.05F
DETROIT LAKES  SUNNY     61  32  33 SE10G16   30.04F
MOORHEAD       MOSUNNY   68  28  22 SE8       30.01F
PARK RAPIDS    SUNNY     60  29  30 E13       30.06F
MAHNOMEN       FAIR      62  30  29 SE10      30.04F
$$
MNZ006-009>011-018-025>026-181900-
   North Central Minnesota

CITY           SKY/WX    TMP DP  RH WIND       PRES   REMARKS
BAUDETTE       SUNNY     58  22  24 SE12G21   30.11F
FLAG ISLAND    SUNNY     45  28  53 SE10      30.12F
INTL FALLS     SUNNY     56  19  23 SE13      30.13F
6HR MIN TEMP:  28; 6HR MAX TEMP:  57;

WASKISH        SUNNY     61  28  29 E14       30.09F
BIG FORK       SUNNY     61  27  27 E12G17    30.13F
LONGVILLE      SUNNY     61  27  27 SE7       30.09F
GRAND RAPIDS   SUNNY     55  25  30 E12G20    30.12F
ORR            SUNNY     57  18  21 SE10      30.12F
COOK           SUNNY     57  23  26 SE9G17    30.16S
WALKER         FAIR      54  31  42 E9        30.09F
$$
MNZ012-019>021-037-181900-
   Northeast Minnesota

CITY           SKY/WX    TMP DP  RH WIND       PRES   REMARKS
DULUTH         SUNNY     48  32  53 E20G26    30.16F
6HR MIN TEMP:  39; 6HR MAX TEMP:  49;

HIBBING        SUNNY     57  22  25 E14G25    30.15F
EVELETH        SUNNY     54  25  32 SE9G17    30.17F
DULUTH HARBOR  SUNNY     41  36  81 NE23G30   30.20F
TWO HARBORS    SUNNY     48  36  61 E17G25    30.19F
SILVER BAY     SUNNY     46  32  57 NE17G23   30.21F
GRAND MARAIS     N/A     41  32  70 NE9       30.28F
G MARAIS ARPRT SUNNY     45  25  45 SE7       30.25F
$$
MNZ029>031-032-039>041-046>048-054>057-064-181900-
   West Central Minnesota

CITY           SKY/WX    TMP DP  RH WIND       PRES   REMARKS
FERGUS FALLS   SUNNY     64  23  20 SE9G16    30.01F
WHEATON        SUNNY     70  32  24 SE13G20   29.99F
MORRIS         SUNNY     72  30  21 SE13G23   29.98F
ALEXANDRIA     SUNNY     66  31  27 SE13      30.03F
ELBOW LAKE     FAIR      66  32  28 E9        30.01F
WADENA         SUNNY     61  34  36 MISG      30.04F
GLENWOOD       SUNNY     70  30  23 E16G23    30.02F
APPLETON       SUNNY     73  23  15 SE14G22   29.96F
BENSON         MOSUNNY   72  25  17 SE12G18   29.98F
ORTONVILLE     SUNNY     72  27  18 SE9G22    29.96F
MADISON        MOSUNNY   73  21  14 E16       29.95F
WILLMAR        FAIR      72  32  23 E16       30.00F
$$
MNZ033>034-036-042>043-049>051-058-059-181900-
   Central Minnesota

CITY           SKY/WX    TMP DP  RH WIND       PRES   REMARKS
ST CLOUD       SUNNY     64  32  30 E8G20     30.04F
6HR MIN TEMP:  46; 6HR MAX TEMP:  65;

SAUK CENTRE    FAIR      64  34  32 E14       30.04F
PAYNESVILLE    SUNNY     63  32  31 NE14      30.03F
AITKIN         SUNNY     61  28  29 NE9       30.09F
PINE RIVER     SUNNY     57  34  41 E15       30.11F
BRAINERD       SUNNY     58  28  32 E9G16     30.09F
STAPLES        SUNNY     61  28  29 E12       30.05F
LONG PRAIRIE   FAIR      61  32  33 E12G18    30.05F
LITTLE FALLS   SUNNY     63  30  29 E10G16    30.06F
LITCHFIELD     MOSUNNY   70  30  23 E13       30.01F
BUFFALO        SUNNY     67  31  25 E12G18    30.04F
MAPLE LAKE     SUNNY     68  37  31 E14       30.04F
$$
MNZ037-044-045-052-053-181900-
   East Central Minnesota

CITY           SKY/WX    TMP DP  RH WIND       PRES   REMARKS
PRINCETON      SUNNY     66  34  30 NE9G16    30.06F
MORA           SUNNY     61  32  33 E9        30.10F
CAMBRIDGE      SUNNY     66  43  42 NE7       30.05F
RUSH CITY      SUNNY     64  33  32 NE8       30.08F
MOOSE LAKE     SUNNY     54  32  43 E8        30.12F
HINCKLEY       FAIR      59  32  36 E10G16    30.11F
CLOQUET        SUNNY     48  30  49 E16G24    30.15F
MCGREGOR       SUNNY     54  32  43 E12G18    30.13S
$$
MNZ071>073-080-081-089-090-097-098-181900-
   Southwest Minnesota

CITY           SKY/WX    TMP DP  RH WIND       PRES   REMARKS
MONTEVIDEO     MOSUNNY   73  27  17 SE17G24   29.97F
GRANITE FALLS  MOSUNNY   72  29  20 E7G20     29.98F
CANBY          PTSUNNY   73  24  16 SE15G21   29.96F
MARSHALL       PTSUNNY   72  32  23 SE17      29.95F
REDWOOD FALLS  MOSUNNY   73  28  18 SE10G22   29.96F
OLIVIA         MOSUNNY   70  30  23 SE16G22   29.98F
PIPESTONE      CLOUDY    68  34  28 SE16G22   29.94F
WORTHINGTON    CLOUDY    70  39  32 SE24      29.94F
JACKSON        CLOUDY    70  36  28 SE18G28   29.96F
TRACY          PTSUNNY   73  33  23 SE13G26   29.95F
SLAYTON        CLOUDY    70  34  26 SE21      29.95F
$$
MNZ065>067-074>077-082>085-091>093-181900-
   South Central Minnesota

CITY           SKY/WX    TMP DP  RH WIND       PRES   REMARKS
MANKATO        MOSUNNY   72  34  25 NE5       29.98F
NEW ULM        MOSUNNY   72  30  21 SE14      29.97F
FAIRMONT       PTSUNNY   68  36  30 SE18      29.96F
GLENCOE        MOSUNNY   71  36  26 E16G22    30.00F
FARIBAULT      MOSUNNY   72  34  25 E13G18    30.00F
OWATONNA       MOSUNNY   73  30  20 SE14      29.99F
ALBERT LEA     MOSUNNY   73  39  29 SE10G20   29.98F
$$
MNZ078>079-086>088-094>096-181900-
   Southeast Minnesota

CITY           SKY/WX    TMP DP  RH WIND       PRES   REMARKS
ROCHESTER      MOSUNNY   70  40  33 E15       30.02F
6HR MIN TEMP:  50; 6HR MAX TEMP:  70;

RED WING       MOSUNNY   72  30  21 SE12      30.02F
STANTON        PTSUNNY   71  31  22 E16       30.00F
DODGE CENTER   MOSUNNY   72  36  26 SE15G22   30.00F
WINONA         MOSUNNY   70  36  28 SE14      30.04F
AUSTIN         MOSUNNY   72  39  30 SE15G22   29.98F
PRESTON        MOSUNNY   69  37  30 E12       30.02F
$$
ABBREVIATIONS USED IN REMARKS
   TC - TEMPERATURES IN CELSIUS
  WCI - WIND CHILL INDEX
   HX - HEAT INDEX
  VSB - VISIBILITY
$$


USA.gov is the U.S. government's official web portal to all federal, state and local government web resources and services.